Regional Weather Roundup
Issued by NWS

Home | Current Version | Previous Version | Text Only | Print | Product List | Glossary On
Versions: 1 2 3 4 5 6 7 8 9 10 11 12 13 14 15 16 17 18 19 20 21 22 23 24 25 26 27
000
ASUS44 KLIX 250406
RWRLA
LOUISIANA WEATHER ROUNDUP
NATIONAL WEATHER SERVICE NEW ORLEANS LA
1100 PM CDT TUE APR 24 2018

NOTE: "FAIR" INDICATES FEW OR NO CLOUDS BELOW 12,000 FEET WITH NO
      SIGNIFICANT WEATHER AND/OR OBSTRUCTIONS TO VISIBILITY.
      SKY/WX - SKY CONDITION AND SIGNIFICANT WEATHER.
      TMP - AIR TEMPERATURE.    DP   - DEWPOINT TEMPERATURE.
      RH  - RELATIVE HUMIDITY.  PRES - PRESSURE.
      HX  - HEAT INDEX.         WCI  - WIND CHILL INDEX.

*  THESE STATIONS ARE NOT NWS OR FAA STATIONS AND ARE NOT UNDER
   NWS QUALITY CONTROL.

LAZ040-048-061>063-065-066-069-250500-
SOUTHEAST LOUISIANA

CITY           SKY/WX    TMP DP  RH WIND       PRES   REMARKS
N.O. INTL ARPT FAIR      71  60  68 N5        30.04R
N.O. LAKEFRONT FAIR      71  59  65 N13       30.05R
N.O. DOWNTOWN* FAIR      71  57  61 N6        30.05R
RESERVE*       FAIR      64  58  82 CALM      30.05R
SLIDELL        FAIR      60  56  86 CALM      30.04R
BATON ROUGE    FAIR      61  57  87 CALM      30.05R FOG
BOOTHVILLE     FAIR      69  60  73 N8        30.03R
BELLE CHASSE   FAIR      67  58  72 N3        30.04R
BOGALUSA*      FAIR      59  55  87 CALM      30.05R
GALLIANO*      FAIR      61  56  84 CALM      30.04S
NEW ROADS*     FAIR      60  53  77 CALM      30.05S
GONZALES*      FAIR      60  57  89 CALM      30.04S
HAMMOND*       FAIR      59  55  88 CALM      30.05R
HOUMA*         FAIR      65  56  75 N5        30.04S
PORT FOURCHON* CLEAR     70  66  88 NW7       30.04S

$$

LAZ041-044-053-054-250500-
SOUTHWEST LOUISIANA

CITY           SKY/WX    TMP DP  RH WIND       PRES   REMARKS
LAKE CHARLES   FAIR      64  59  83 CALM      30.04R
LAFAYETTE      FAIR      63  60  90 CALM      30.05R
PATTERSON      FAIR      62  60  93 CALM      30.05R
SALT POINT       N/A    N/A N/A N/A CALM      30.03S
NEW IBERIA     FAIR      65  56  72 NE3       30.05R
CHENAULT AIRPK FAIR      65  58  77 CALM      30.05R

$$

LAZ027-028-250500-
CENTRAL LOUISIANA

CITY           SKY/WX    TMP DP  RH WIND       PRES   REMARKS
FORT POLK      NOT AVBL
ALEXANDRIA INT FAIR      62  56  80 CALM      30.02S
ALEXANDRIA     FAIR      57  57 100 CALM      30.04S

$$

LAZ001-002-250500-
NORTHWEST LOUISIANA

CITY           SKY/WX    TMP DP  RH WIND       PRES   REMARKS
SHREVEPORT     FAIR      62  56  80 CALM      30.03R
BARKSDALE AFB  NOT AVBL
DTN SHREVEPORT FAIR      64  56  75 CALM      30.03S

$$

LAZ014-016-250500-
NORTHEAST LOUISIANA

CITY           SKY/WX    TMP DP  RH WIND       PRES   REMARKS
MONROE         FAIR      61  58  90 CALM      30.05R
TALLULAH       FAIR      58  58 100 CALM      30.04S

$$





USA.gov is the U.S. government's official web portal to all federal, state and local government web resources and services.